Lewistown, MT

8:07 PM MST on January 20, 2017 (GMT -0700)
Lewistown Municipal

Weather History for KLWT - September, 2014

Change the Weather History Date:

Friday, September 12, 2014

  Actual Average Record
Temperature  
Mean Temperature 46 °F 56 °F  
Max Temperature 64 °F 71 °F 91 °F (1953)
Min Temperature 27 °F 42 °F 22 °F (1921)
Degree Days  
Heating Degree Days 19 9  
Month to date heating degree days 155 90  
Since 1 July heating degree days 236 248  
Cooling Degree Days 0 1  
Month to date cooling degree days 0 12  
Year to date cooling degree days 281 208  
Moisture  
Dew Point 28 °F    
Average Humidity 54    
Maximum Humidity 85    
Minimum Humidity 23    
Precipitation  
Precipitation 0.00 in 0.05 in 1.33 in (1978)
Month to date precipitation 0.33 0.57  
Year to date precipitation 15.41 13.57  
Snow  
Snow 0.00 in - - ()
Snow Depth 0.00 in    
Sea Level Pressure  
Sea Level Pressure 30.22 in    
Wind  
Wind Speed 7 mph (South)    
Max Wind Speed 16 mph    
Max Gust Speed 21 mph    
Visibility 10 miles    
Events      
T = Trace of Precipitation, MM = Missing Value Source: NWS Daily Summary

Daily Weather History Graph

Daily Weather History Graph

Search for Another Location

Airport or City:

Trip Planner

Search our weather history database for the weather conditions in past years. The results will help you decide how hot, cold, wet, or windy it might be!

Date:

Astronomy

Sep. 12, 2014 Rise Set
Actual Time 6:51 AM MDT 7:35 PM MDT
Civil Twilight 6:20 AM MDT 8:06 PM MDT
Nautical Twilight 5:44 AM MDT 8:42 PM MDT
Astronomical Twilight 5:05 AM MDT 9:21 PM MDT
Moon 9:40 PM MDT (9/12) 11:16 AM MDT (9/12)
Length of Visible Light 13h 45m
Length of Day
12h 43m
Waning Gibbous, 82% of the Moon is Illuminated
Sep 12
Waning Gibbous
Sep 15
Last Quarter
Sep 24
New
Oct 1
First Quarter
Oct 8
Full

Hourly Weather History & Observations

Time (MDT) Temp. Windchill Dew Point Humidity Pressure Visibility Wind Dir Wind Speed Gust Speed Precip Events Conditions
12:54 AM 30.9 °F 23.5 °F 27.0 °F 85% 30.44 in 10.0 mi ESE 8.1 mph - N/A   Clear
1:54 AM 30.0 °F 24.1 °F 26.1 °F 85% 30.43 in 10.0 mi ESE 5.8 mph - N/A   Clear
3:54 AM 30.0 °F 22.4 °F 25.0 °F 82% 30.40 in 10.0 mi SE 8.1 mph - N/A   Clear
4:54 AM 28.9 °F 21.1 °F 24.1 °F 82% 30.39 in 10.0 mi ESE 8.1 mph - N/A   Clear
5:54 AM 28.0 °F 21.7 °F 24.1 °F 85% 30.37 in 10.0 mi ESE 5.8 mph - N/A   Clear
6:54 AM 28.0 °F 20.8 °F 23.0 °F 81% 30.35 in 10.0 mi SE 6.9 mph - N/A   Clear
7:54 AM 30.9 °F 24.3 °F 26.1 °F 82% 30.32 in 10.0 mi ESE 6.9 mph - N/A   Clear
8:54 AM 37.9 °F 34.4 °F 28.0 °F 68% 30.30 in 10.0 mi East 4.6 mph - N/A   Clear
9:54 AM 46.0 °F 43.9 °F 28.0 °F 50% 30.27 in 10.0 mi East 4.6 mph - N/A   Clear
10:54 AM 53.1 °F - 26.1 °F 35% 30.23 in 10.0 mi Calm Calm - N/A   Clear
11:54 AM 55.9 °F - 19.9 °F 25% 30.21 in 10.0 mi West 10.4 mph - N/A   Clear
12:54 PM 59.0 °F - 21.9 °F 24% 30.17 in 10.0 mi WSW 11.5 mph - N/A   Clear
1:19 PM 60.1 °F - 21.9 °F 23% 30.15 in 10.0 mi WSW 12.7 mph - N/A   Partly Cloudy
1:54 PM 61.0 °F - 24.1 °F 24% 30.14 in 10.0 mi WSW 12.7 mph - N/A   Clear
2:31 PM 61.0 °F - 24.1 °F 24% 30.12 in 10.0 mi WSW 12.7 mph - N/A   Partly Cloudy
2:54 PM 63.0 °F - 25.0 °F 24% 30.12 in 10.0 mi SW 11.5 mph - N/A   Clear
3:54 PM 63.0 °F - 27.0 °F 26% 30.10 in 10.0 mi West 10.4 mph - N/A   Clear
4:54 PM 63.0 °F - 28.0 °F 27% 30.09 in 10.0 mi WNW 6.9 mph - N/A   Clear
6:54 PM 57.0 °F - 36.0 °F 45% 30.09 in 10.0 mi North 9.2 mph - N/A   Clear
7:54 PM 50.0 °F - 37.9 °F 63% 30.11 in 10.0 mi North 6.9 mph - N/A   Clear
8:54 PM 46.9 °F - 37.0 °F 68% 30.12 in 10.0 mi Calm Calm - N/A   Clear
9:54 PM 44.1 °F 40.8 °F 36.0 °F 73% 30.11 in 10.0 mi South 5.8 mph - N/A   Clear
10:54 PM 42.1 °F 37.7 °F 36.0 °F 79% 30.11 in 10.0 mi SW 6.9 mph - N/A   Clear
11:54 PM 43.0 °F 38.2 °F 35.1 °F 74% 30.12 in 10.0 mi WSW 8.1 mph - N/A   Clear